Preview of NWS' New Version of Forecast
This preview is not operational and should not be used for support decisions.

Regional Weather Roundup (RWR)

Issued by National Weather Service (NWS)

                            
000
ASUS46 KPQR 222110
RWROR 

OREGON REGIONAL WEATHER ROUNDUP
NATIONAL WEATHER SERVICE PORTLAND OR
200 PM PDT WED MAY 22 2019

NOTE: "FAIR" INDICATES FEW OR NO CLOUDS BELOW 12,000 FEET WITH
NO SIGNIFICANT WEATHER AND/OR OBSTRUCTIONS TO VISIBILITY.

ORZ001>013-222200-
NORTHWEST OREGON

  
CITY           SKY/WX    TMP DP  RH WIND       PRES   REMARKS
ASTORIA        CLOUDY    58  51  78 W8        30.04S                  
TILLAMOOK      CLOUDY    59  52  77 W8        30.07S                  
NEWPORT        CLOUDY    54  52  94 NW8       30.10S FOG              
PORTLAND       FAIR      68  51  54 NE5       29.98F                  
VANCOUVER WA   FAIR      66  51  58 SW5       29.98F                  
SCAPPOOSE      FAIR      73  54  51 VRB6      29.96F                  
HILLSBORO      PTSUNNY   70  52  52 VRB5      29.97F                  
AURORA         PTSUNNY   69  52  54 S7        29.99F                  
MCMINNVILLE    CLOUDY    67  52  58 W6        29.98S                  
SALEM          CLOUDY    66  50  56 CALM      29.99S                  
CORVALLIS      CLOUDY    68  54  60 W9        30.01F                  
EUGENE         PTSUNNY   67  53  61 S6        30.01F                  
$$

ORZ021-028-222200-
SOUTHWEST OREGON

  
CITY           SKY/WX    TMP DP  RH WIND       PRES   REMARKS
NORTH BEND     CLOUDY    58  52  80 NW10      30.10S                  
BROOKINGS      FAIR      62  54  74 NW15G23   30.00S                  
ROSEBURG       PTSUNNY   66  50  56 VRB5      30.01F                  
SEXTON SUMMIT  HVY RAIN  46  45  96 N8        30.02S                  
GRANTS PASS    PTSUNNY   63  48  59 NW5       30.03S                  
MEDFORD        PTSUNNY   63  46  54 W12       29.97F                  
$$

ORZ014>016-041-222200-
COLUMBIA GORGE

  
CITY           SKY/WX    TMP DP  RH WIND       PRES   REMARKS
TROUTDALE      FAIR      66  52  60 VRB3      29.99F                  
HOOD RIVER     CLOUDY    66  48  52 W7G20     29.93R                  
THE DALLES     PTSUNNY   73  50  44 NW13      29.89S                  
$$

ORZ029>031-041-044-049-050-061>064-502-503-505>511-222200-
EASTERN OREGON

  
CITY           SKY/WX    TMP DP  RH WIND       PRES   REMARKS
MADRAS         CLOUDY    63  43  48 N13       29.96S                  
REDMOND        PTSUNNY   62  40  44 N12       29.94R                  
BEND           CLOUDY    61  39  44 N12G18    29.94R                  
PRINEVILLE     CLOUDY    59  43  55 N16G23    29.93S                  
KLAMATH FALLS  LGT RAIN  54  43  66 NE16G22   29.91R                  
LAKEVIEW       LGT RAIN  49  43  80 NE10      29.88S                  
HERMISTON      CLOUDY    68  45  43 NE8       29.89R                  
PENDLETON      FAIR      62  49  62 NW13      29.89S                  
JOHN DAY       CLOUDY    56  45  66 NW9       29.88R                  
MEACHAM        CLOUDY    50  45  83 VRB3      29.91S                  
LA GRANDE      PTSUNNY   59  41  51 N16G23    29.87S                  
BAKER CITY     FAIR      63  43  48 NW23G30   29.84R                  
BURNS          CLOUDY    57  39  51 N22G31    29.84R                  
ROME             N/A     55  42  61 NE15G25   29.78R                  
ONTARIO        LGT RAIN  68  41  37 N14       29.76R                  
$$